Location: Penton Mewsey
(51.2167°N, 1.5167°W)
Time: 04:11:38
(UTC+00:00)

STARLINK-1244 - Pass Details

Date: 30 March 2020
Orbit: 549 x 551 km, 53.0° (Epoch: 06 June)

Event Time Altitude Azimuth Distance (km) Brightness Sun altitude
Rises 19:00:41 0° 222° (SW) 2,799 7.7 -4.6°
Reaches altitude 10° 19:03:02 10° 215° (SW) 1,905 6.7 -4.9°
Maximum altitude 19:07:05 39° 146° (SE) 880 4.3 -5.5°
Drops below altitude 10° 19:11:10 10° 77° (ENE) 1,916 5.8 -6.2°
Enters shadow 19:12:38 - 72° (ENE) 2,465 6.4 -6.4°
